Current weather by "City, St" or "zip code"  
 
Advertise Here

Current Conditions: Tucson, Tucson International Airport, AZ

Fair


62.0 F

Last Updated on Jan 17 2021, 7:53 pm MST
Humidity: 12%
Wind Speed: N 0.0 mph
Barometer 30.01 in
Dewpoint: 9.0 F
Visibility: 10.00 mi
Precip: --
Heat Index: NA
Wind Chill: NA
Current conditions at:

Tucson, Tucson International Airport, AZ (KTUS)

Lat: 32.13153 Lon: 110.95635

Local Radar Image active severe weather and emergency alerts image image weather storm and storm spotter reports image weather observation monitoring service image
Local
Radar
Active
Alerts
Storm Reports Obs
Monitoring

Sign-up For Email & Text Message Weather Alert Notification Services


Advertise Here

Observation History for Tucson, Tucson International Airport, AZ


Time Wind
(mph)
Vis
(mi)
Weather Precip (in) Temperature (F) Relative
Humidity
Wind
Chill
(F)
Heat
Index
(F)
Pressure
Air Dwpt altimeter
(in)
sea level
(mb)
Rmks
7:53 pm MST N 0.0 10.00 Fair -- 62.0 9.0 12% NA NA 30.01 1014.4
6:53 pm MST SW 4.6 10.00 Fair -- 63.0 8.1 11% 64 NA 30.01 1014.6
5:53 pm MST N 5.8 10.00 Fair -- 72.0 7.0 8% NA NA 30.01 1013.8
4:53 pm MST N 4.6 10.00 Fair -- 79.0 0.0 4% NA NA 30.01 1013.4
3:53 pm MST N 5.8 10.00 Fair -- 80.0 3.0 5% NA 78 30.01 1013.7
2:53 pm MST N 5.8 10.00 Fair -- 79.0 3.9 5% NA NA 30.02 1013.9
1:53 pm MST NW 3.5 10.00 Fair -- 78.0 3.0 5% NA NA 30.04 1014.4
12:53 pm MST N 0.0 10.00 Fair -- 75.0 5.0 6% NA NA 30.07 1015.6
11:53 am MST S 4.6 10.00 Fair -- 71.0 7.0 8% NA NA 30.11 1017.0
10:53 am MST SE 5.8 10.00 Fair -- 68.0 9.0 10% NA NA 30.13 1018.0
9:53 am MST S 3.5 10.00 Fair -- 58.0 10.0 15% NA NA 30.13 1018.3
8:53 am MST SE 4.6 10.00 Fair -- 48.0 8.1 19% 46 NA 30.12 1018.2
7:53 am MST SE 9.2 10.00 Fair -- 43.0 8.1 24% 38 NA 30.12 1018.2
6:53 am MST S 6.9 10.00 Fair -- 41.0 7.0 24% 36 NA 30.12 1018.2
5:53 am MST N 0.0 10.00 Fair -- 44.0 7.0 22% NA NA 30.12 1017.8
4:53 am MST SE 5.8 10.00 Fair -- 41.0 7.0 24% 37 NA 30.11 1017.2
3:53 am MST SE 3.5 10.00 Fair -- 40.0 8.1 27% NA NA 30.11 1017.2
2:53 am MST N 0.0 10.00 Fair -- 44.0 7.0 22% NA NA 30.10 1016.8
1:53 am MST S 3.5 10.00 Fair -- 46.0 7.0 20% NA NA 30.09 1016.6
12:53 am MST S 4.6 10.00 Fair -- 45.0 6.1 20% 43 NA 30.09 1016.6
11:53 pm MST SE 5.8 10.00 Fair -- 48.0 7.0 19% 45 NA 30.09 1016.7
10:53 pm MST S 3.5 10.00 Fair -- 50.0 8.1 18% NA NA 30.09 1016.9
9:53 pm MST S 3.5 10.00 Fair -- 53.0 9.0 17% NA NA 30.07 1016.5
8:53 pm MST W 5.8 10.00 Fair -- 59.0 10.0 14% 58 NA 30.06 1016.0

Regional Weather Observation


Tucson Marana Regional Airport, AZ (KAVQ)

Fair
59.0 F

Tucson, Tucson International Airport, AZ (KTUS)

Fair
62.0 F

Davis-Monthan Air Force Base, AZ (KDMA)

Fair
57.0 F

Coolidge Municipal Airport, AZ (KP08)

Fair
54.0 F

Casa Grande, Casa Grande Municipal Airport, AZ (KCGZ)

Fair
57.0 F

Ak-Chin Regional Airport, AZ (KA39)

Fair
54.0 F